Regional Weather Roundup
Issued by NWS Huntsville, AL

Home | Current Version | Previous Version | Text Only | Print | Product List | Glossary On
Versions: 1 2 3 4 5 6 7 8 9 10 11 12 13 14 15 16 17 18 19 20 21 22 23 24 25 26 27 28 29 30 31 32 33 34 35 36 37 38 39 40 41 42 43 44 45 46 47 48 49 50
000
ASUS44 KHUN 042210
RWRHUN

WEATHER ROUNDUP FOR THE TENNESSEE VALLEY
NATIONAL WEATHER SERVICE HUNTSVILLE AL
500 PM CDT TUE AUG 04 2015

ALZ001>004-042300-
NORTHWEST ALABAMA

CITY           SKY/WX    TMP DP  RH WIND       PRES   REMARKS
COURTLAND HCN    N/A     86 N/A N/A N6          N/A
RUSSELLVILLE     N/A     88 N/A N/A MISG        N/A
SHOALS AIRPORT MOSUNNY   98  63  31 NW5       29.97F HX 100
SHOALS TVA RES   N/A     95 N/A N/A MISG        N/A
$$

ALZ005>007-016-042300-
NORTH CENTRAL ALABAMA

CITY           SKY/WX    TMP DP  RH WIND       PRES   REMARKS
CULLMAN AG STN   N/A     91 N/A N/A W5          N/A
DECATUR AP     MOSUNNY   96  61  31 VRB5      29.96F HX  96
HUNTSVILLE AP  MOSUNNY   98  65  33 W5        29.96F HX 101
HUN NWS/UAH      N/A     97  60  29 N5          N/A  HX  96
MERIDIANVILLE  SUNNY     93  52  24 NW5       29.97F HX  90
REDSTONE ARSN  CLOUDY    96  65  35 SE1       29.94F HX  98
$$

ALZ008>010-042300-
NORTHEAST ALABAMA

CITY           SKY/WX    TMP DP  RH WIND       PRES   REMARKS
ALBERTVILLE    SUNNY     95  70  43 NW5       29.97F HX 101
FORT PAYNE     MOSUNNY   95  50  21 W6        29.97F HX  92
SCOTTSBORO AP  MOSUNNY   95  68  41 NE6       29.96F HX  99
SCOTTSBORO HCN   N/A     93 N/A N/A MISG        N/A
VALLEY HEAD      N/A     93 N/A N/A MISG        N/A
$$

TNZ076-096-097-042300-
SOUTHEASTERN MIDDLE TENNESSEE

CITY           SKY/WX    TMP DP  RH WIND       PRES   REMARKS
TULLAHOMA      SUNNY     93  63  36 N5        30.00F HX  94
WINCHESTER     SUNNY     93  66  40 W3        29.98F HX  96
$$

...SURROUNDING SITES...

CITY           SKY/WX    TMP DP  RH WIND       PRES   REMARKS
ATLANTA        MOSUNNY   95  58  28 W8        29.98F HX  94
ANNISTON       SUNNY     98  57  25 E5        29.95F HX  97
BIRMINGHAM     PTSUNNY   97  60  29 SE6       29.97F HX  97
CHATTANOOGA    MOSUNNY   96  60  30 W5        29.96F HX  96
DALTON         SUNNY     91  66  43 NE3       29.97F HX  94
GADSDEN        SUNNY     99  57  25 CALM      29.93F HX  97
GOLDEN TRNGL   PTSUNNY   97  64  34 NW7       29.95S HX  99
HALEYVILLE     FAIR      90  69  49 N9        30.02S HX  94
JACKSON TN     PTSUNNY   96  65  35 SW7       29.96F HX  98
MEMPHIS        MOSUNNY   95  68  41 SW9       29.95F HX  99
NASHVILLE      PTSUNNY   94  66  39 VRB5      29.96F HX  97
ROME           SUNNY     97  59  28 CALM      29.94F HX  96
SAVANNAH       SUNNY     97  32  10 CALM      29.97S HX  91
TUPELO         MOSUNNY   96  67  38 VRB3      29.95F HX 100
TUSCALOOSA     SUNNY     99  56  23 SW7       29.93F HX  97
$$

...GULF COAST WEATHER...

CITY           SKY/WX    TMP DP  RH WIND       PRES   REMARKS
GULFPORT       MOSUNNY   87  75  67 S9        29.96F HX  96
PASCAGOULA     SUNNY     88  73  61 VRB7      29.97F HX  95
MOBILE         MOSUNNY   90  73  57 S9        29.98F HX  98
GULF SHORES    PTCLDY    87  76  69 SW9       29.98F HX  98
PENSACOLA      MOSUNNY   87  76  69 SW13      29.97F HX  97
DESTIN         MOSUNNY   87  77  72 SW10G16   29.99S HX  99
PANAMA CITY    PTSUNNY   89  77  67 SW13      30.00F HX 100
APPALACHICOLA  CLOUDY    90  75  61 SW10      30.01F HX 100
$$




USA.gov is the U.S. government's official web portal to all federal, state and local government web resources and services.